EW8409 Weather Reports


Display with metric or nautical units.
time (UTC)temp
F
wind
direction
speed
MPH
gust
MPH
rain 1hr
in
rain 24hr
in
rain mn
in
humidity
%
barometer
mb
20260506044511 47 63 0.0 0.0 0.04 0.28 0.04 96 1009.0
20260506043005 47 69 0.0 0.0 0.04 0.26 0.02 96 1008.8
20260506041505 47 69 0.0 0.0 0.04 0.25 0.01 96 1008.6
20260506040003 47 80 0.0 0.0 0.03 0.24 0.00 96 1008.7
20260506034502 47 79 0.0 0.0 0.02 0.23 0.23 96 1009.0
20260506033001 47 145 0.0 0.0 0.01 0.22 0.22 96 1009.4
20260506031501 47 75 0.0 0.0 0.01 0.21 0.21 96 1009.0
20260506024600 47 65 0.0 0.0 0.03 0.21 0.21 96 1009.1
20260506023107 47 70 0.0 0.0 0.05 0.21 0.21 95 1009.3
20260506021612 47 79 0.0 0.0 0.05 0.20 0.20 95 1009.6
20260506020055 47 74 0.0 0.0 0.04 0.19 0.19 95 1009.7
20260506014554 48 77 0.0 0.0 0.04 0.18 0.18 95 1009.4
20260506013106 48 17 0.0 0.0 0.03 0.16 0.16 95 1009.6
20260506011612 48 17 0.0 0.0 0.02 0.15 0.15 94 1009.3
20260506010056 48 17 0.0 0.0 0.03 0.15 0.15 94 1008.8
20260506004548 48 17 0.0 0.0 0.02 0.14 0.14 94 1008.4
20260506003047 48 5 0.0 0.0 0.02 0.13 0.13 94 1008.7
20260506001547 48 6 0.0 0.0 0.05 0.13 0.13 93 1008.3
20260506000048 48 4 0.0 0.0 0.05 0.12 0.12 92 1008.3
20260505234545 48 4 0.0 0.0 0.07 0.12 0.12 91 1008.4
20260505233042 48 356 0.0 0.0 0.08 0.11 0.11 90 1008.3
20260505231554 49 45 0.0 0.0 0.07 0.08 0.08 89 1008.4
20260505230036 49 359 0.0 0.0 0.05 0.06 0.06 87 1008.1
20260505224533 50 4 0.0 0.0 0.04 0.05 0.05 84 1008.0
20260505223028 53 245 0.0 4.0 0.02 0.03 0.03 75 1008.0
20260505221523 55 345 0.0 0.0 0.00 0.01 0.01 68 1007.7
20260505220023 57 28 0.0 7.0 0.00 0.01 0.01 65 1007.1
20260505214517 60 67 0.0 1.0 0.00 0.01 0.01 66 1006.3
20260505213017 64 136 0.0 5.0 0.00 0.01 0.01 65 1005.5
20260505211512 65 203 0.0 2.0 0.00 0.01 0.01 64 1004.8
20260505210013 66 269 0.0 14.0 0.00 0.01 0.01 62 1004.8
20260505204511 66 208 0.0 4.0 0.00 0.01 0.01 61 1004.5
20260505203009 67 63 0.0 15.0 0.00 0.01 0.01 61 1004.4
20260505201512 68 214 0.0 7.0 0.00 0.01 0.01 60 1004.3
20260505200007 68 101 0.0 7.0 0.00 0.01 0.01 61 1004.3
20260505194503 68 193 0.0 5.0 0.00 0.01 0.01 60 1004.5
20260505193001 69 175 0.0 7.0 0.00 0.01 0.01 58 1004.1
20260505191501 70 240 0.0 6.0 0.00 0.01 0.01 57 1004.2
20260505190100 70 345 1.0 9.0 0.00 0.01 0.01 56 1004.2
20260505190001 70 207 0.0 9.0 0.00 0.01 0.01 57 1004.2
20260505184557 71 330 0.0 10.0 0.00 0.01 0.01 56 1003.9
20260505183057 72 283 0.0 3.0 0.00 0.01 0.01 54 1003.8
20260505181556 70 84 0.0 7.0 0.00 0.01 0.01 55 1003.6
20260505174555 70 153 1.0 14.0 0.00 0.01 0.01 54 1003.8
20260505173058 70 359 1.0 8.0 0.00 0.01 0.01 56 1003.5
20260505171553 69 243 0.0 10.0 0.00 0.01 0.01 60 1003.4
20260505170108 66 204 1.0 11.0 0.00 0.01 0.01 62 1003.4
20260505164554 67 207 0.0 8.0 0.00 0.01 0.01 60 1003.4
20260505163050 69 110 0.0 5.0 0.00 0.01 0.01 56 1003.4
20260505161552 69 152 0.0 5.0 0.00 0.01 0.01 57 1003.3
20260505153042 72 241 1.0 9.0 0.00 0.01 0.01 53 1002.0
20260505151554 71 119 0.0 10.0 0.00 0.01 0.01 55 1002.0
20260505124525 68 180 0.0 5.0 0.00 0.01 0.01 60 1001.8
20260505123024 68 150 0.0 6.0 0.00 0.01 0.01 61 1001.5
20260505121522 67 339 1.0 9.0 0.00 0.01 0.01 62 1001.4
20260505120020 66 131 0.0 4.0 0.00 0.01 0.01 64 1001.5
20260505114518 66 165 0.0 4.0 0.00 0.01 0.01 64 1001.5
20260505113017 65 255 0.0 5.0 0.00 0.01 0.01 65 1001.4
20260505111513 65 182 0.0 5.0 0.00 0.01 0.01 66 1001.3
20260505101508 62 202 0.0 5.0 0.00 0.01 0.01 73 1000.8
20260505100009 61 156 0.0 3.0 0.00 0.01 0.01 75 1000.6
20260505094506 60 199 0.0 0.0 0.00 0.01 0.01 78 1000.6
20260505093006 59 194 0.0 0.0 0.00 0.01 0.01 82 1000.7
20260505091503 57 165 0.0 0.0 0.00 0.01 0.01 89 1000.8
20260505090001 56 203 0.0 0.0 0.00 0.01 0.01 91 1001.0
20260505084559 56 178 0.0 0.0 0.00 0.01 0.01 92 1001.2
20260505083102 57 159 0.0 0.0 0.00 0.01 0.01 91 1001.3
20260505081556 57 159 0.0 0.0 0.00 0.01 0.01 90 1001.4
20260505080054 58 157 0.0 0.0 0.01 0.01 0.01 88 1001.6
20260505074548 59 184 0.0 0.0 0.01 0.01 0.01 86 1001.8
20260505073046 59 207 0.0 0.0 0.01 0.01 0.01 85 1002.0
20260505071541 61 178 0.0 2.0 0.01 0.01 0.01 81 1001.8
20260505070042 63 198 0.0 7.0 0.00 0.00 0.00 71 1002.0
20260505064535 63 206 0.0 3.0 0.00 0.00 0.00 67 1002.1
20260505063039 63 219 0.0 4.0 0.00 0.00 0.00 67 1001.9
20260505061539 63 267 0.0 0.0 0.00 0.00 0.00 67 1001.8
20260505060034 63 184 0.0 8.0 0.00 0.00 0.00 66 1001.8
20260505054538 63 179 0.0 0.0 0.00 0.00 0.00 66 1001.8